Вернуться в каталог

STARLINK-32249

АктивенСвязьVLEO
NORAD 60444·PAYLOAD·🇺🇸 United States

Запущен Aug 12, 2024 с Cape Canaveral Space Force Station

Loading…

Ближайшие Пролёты (ближайшие 24 часа)

TLE

СвежийSource: CelesTrak SupGP

Эпоха: Sep 14, 2026, 14:24 UTC

1 60444C 24144V   26257.60048611 -.00041573  00000+0 -12279-2 0  2572
2 60444  53.1581  55.4247 0001114  96.2614 202.6133 15.34421859    15

Отслеживайте STARLINK-32249 в реальном времени с AllMySat

Download on the App Store